This demonstration page uses our WeatherBlox Daily Observations layout. Learn more.

Left ArrowRight Arrow

39.95238, -75.16362

Hourly Observations for April 1, 2022

Temp ( °F °C ) Dew Point ( °F °C ) Humidity (%) Winds ( mph kmh ) Pressure ( in mb ) Visibility ( mi km ) Precip ( " mm )
12:21 am 00:21 Cloudy 66 18.9 60 15.6 81 81 S 10 17 29.46 998 10 16 0.00 0.00
12:54 am 00:54 Cloudy 68 20 61 16.1 78 78 SSW 16 26 29.45 997 10 16 0.00 0.00
1:43 am 01:43 Cloudy with Light Rain 66 18.9 60 15.6 81 81 WSW 15 24 29.46 998 6 10 0.00 0.00
1:54 am 01:54 Cloudy with Light Rain 65 18.3 59 15 81 81 W 17 28 29.45 997 6 10 0.13 3.30
2:11 am 02:11 Cloudy with Light Rain 64 17.8 60 15.6 87 87 WNW 10 17 29.47 998 8 13 0.06 1.52
2:24 am 02:24 Cloudy with Light Rain 64 17.8 57 13.9 78 78 WNW 12 19 29.48 998 10 16 0.07 1.78
2:54 am 02:54 Cloudy with Light Rain 62 16.7 54 12.2 75 75 NW 14 22 29.48 998 10 16 0.07 1.78
3:54 am 03:54 Cloudy 60 15.6 53 11.7 78 78 NW 10 17 29.50 999 10 16 0.00 0.00
4:47 am 04:47 Cloudy with Light Rain 58 14.4 51 10.6 78 78 W 14 22 29.57 1001 6 10 0.02 0.51
4:54 am 04:54 Cloudy with Rain 58 14.4 51 10.6 78 78 WNW 8 13 29.56 1001 6 10 0.03 0.76
5:05 am 05:05 Cloudy with Light Rain 57 13.9 51 10.6 81 81 W 7 11 29.56 1001 8 13 0.01 0.25
5:54 am 05:54 Mostly Cloudy 56 13.3 46 7.8 70 70 WNW 12 19 29.58 1002 10 16 0.01 0.25
6:04 am 06:04 Mostly Cloudy with Light Rain 55 12.8 46 7.8 72 72 NW 13 20 29.58 1002 6 10 0.00 0.00
6:08 am 06:08 Mostly Cloudy with Light Rain 55 12.8 46 7.8 72 72 WNW 13 20 29.59 1002 7 11 0.00 0.00
6:54 am 06:54 Cloudy with Light Rain 54 12.2 42 5.6 64 64 WNW 8 13 29.60 1003 10 16 0.00 0.00
7:54 am 07:54 Cloudy 53 11.7 42 5.6 66 66 W 9 15 29.61 1003 10 16 0.00 0.00
8:54 am 08:54 Cloudy 53 11.7 40 4.4 61 61 W 10 17 29.62 1003 10 16 0.00 0.00
9:54 am 09:54 Cloudy 54 12.2 37 2.8 53 53 W 17 28 29.65 1004 10 16 0.00 0.00
10:54 am 10:54 Mostly Cloudy 54 12.2 33 0.6 45 45 W 25 41 29.69 1005 10 16 0.00 0.00
11:54 am 11:54 Mostly Cloudy 57 13.9 32 0 39 39 W 18 30 29.67 1005 10 16 0.00 0.00
12:54 pm 12:54 Mostly Cloudy 59 15 31 -0.6 35 35 W 30 48 29.67 1005 10 16 0.00 0.00
1:54 pm 13:54 Mostly Cloudy 55 12.8 29 -1.7 37 37 WNW 24 39 29.69 1005 10 16 0.00 0.00
2:54 pm 14:54 Mostly Cloudy 57 13.9 29 -1.7 34 34 W 24 39 29.69 1005 10 16 0.00 0.00
3:54 pm 15:54 Partly Cloudy 55 12.8 30 -1.1 38 38 W 21 33 29.72 1006 10 16 0.00 0.00
4:54 pm 16:54 Mostly Cloudy 55 12.8 23 -5 29 29 W 18 30 29.75 1007 10 16 0.00 0.00
5:54 pm 17:54 Mostly Cloudy 54 12.2 20 -6.7 26 26 W 31 50 29.78 1009 10 16 0.00 0.00
6:54 pm 18:54 Partly Cloudy 52 11.1 21 -6.1 30 30 W 26 43 29.83 1010 10 16 0.00 0.00
7:54 pm 19:54 Partly Cloudy 51 10.6 21 -6.1 31 31 WNW 20 31 29.86 1011 10 16 0.00 0.00
8:54 pm 20:54 Mostly Clear 50 10 22 -5.6 33 33 WNW 13 20 29.91 1013 10 16 0.00 0.00
9:54 pm 21:54 Partly Cloudy 48 8.9 21 -6.1 34 34 NW 23 37 29.94 1014 10 16 0.00 0.00
10:54 pm 22:54 Partly Cloudy 47 8.3 20 -6.7 34 34 WNW 9 15 29.98 1015 10 16 0.00 0.00
11:54 pm 23:54 Mostly Cloudy 46 7.8 20 -6.7 35 35 NW 17 28 30.01 1016 10 16 0.00 0.00

Powered by AerisWeather